Weather History for Delaware, OH

Change the Weather History Date:

Thursday, October 10, 2013

  Actual Average Record
Temperature  
Mean Temperature 54 °F -  
Max Temperature 73 °F 65 °F 83 °F (1939)
Min Temperature 35 °F 41 °F 28 °F (1989)
Degree Days  
Heating Degree Days 11    
Growing Degree Days 4 (Base 50)    
Moisture  
Dew Point 40 °F    
Average Humidity 70    
Maximum Humidity 100    
Minimum Humidity 27    
Precipitation  
Precipitation 0.00 in - - ()
Sea Level Pressure  
Sea Level Pressure 30.16 in    
Wind  
Wind Speed 0 mph (NE)    
Max Wind Speed 6 mph    
Max Gust Speed -    
Visibility 10 miles    
Events      
Averages and records for this station are not official NWS values.
T = Trace of Precipitation, MM = Missing Value Source: NWS Daily Summary

Daily Weather History Graph

Daily Weather History Graph

Search for Another Location

Airport:

Trip Planner

Search our weather history database for the weather conditions in past years. The results will help you decide how hot, cold, wet, or windy it might be!

Date:

Astronomy

Oct. 10, 2013 Rise Set
Actual Time 7:38 AM EDT 6:59 PM EDT
Civil Twilight 7:10 AM EDT 7:27 PM EDT
Nautical Twilight 6:39 AM EDT 7:58 PM EDT
Astronomical Twilight 6:07 AM EDT 8:30 PM EDT
Moon 1:29 PM EDT (10/10) 11:36 PM EDT (10/10)
Length of Visible Light 12h 16m
Length of Day
11h 21m
Waxing Crescent, 35% of the Moon is Illuminated
Oct 10
Waxing Crescent
Oct 11
First Quarter
Oct 18
Full
Oct 26
Last Quarter
Nov 3
New

Hourly Weather History & Observations

Time (EDT) Temp. Dew Point Humidity Pressure Visibility Wind Dir Wind Speed Gust Speed Precip Events Conditions
12:17 AM 41.0 °F 39.2 °F 93% 30.20 in 10.0 mi Calm Calm - N/A   Clear
12:37 AM 41.0 °F 39.2 °F 93% 30.20 in 10.0 mi Calm Calm - N/A   Clear
12:57 AM 41.0 °F 37.4 °F 87% 30.20 in 10.0 mi Calm Calm - N/A   Clear
1:17 AM 39.2 °F 37.4 °F 93% 30.19 in 10.0 mi Calm Calm - N/A   Clear
1:37 AM 41.0 °F 39.2 °F 93% 30.20 in 10.0 mi Calm Calm - N/A   Clear
1:57 AM 39.2 °F 37.4 °F 93% 30.20 in 10.0 mi Calm Calm - N/A   Clear
2:17 AM 41.0 °F 37.4 °F 87% 30.19 in 10.0 mi Calm Calm - N/A   Clear
2:38 AM 37.4 °F 37.4 °F 100% 30.20 in 10.0 mi Calm Calm - N/A   Clear
2:57 AM 41.0 °F 37.4 °F 87% 30.20 in 10.0 mi Calm Calm - N/A   Clear
3:17 AM 37.4 °F 35.6 °F 93% 30.19 in 10.0 mi Calm Calm - N/A   Clear
3:37 AM 37.4 °F 35.6 °F 93% 30.19 in 10.0 mi Calm Calm - N/A   Clear
3:57 AM 35.6 °F 35.6 °F 100% 30.19 in 10.0 mi Calm Calm - N/A   Clear
4:17 AM 35.6 °F 35.6 °F 100% 30.18 in 10.0 mi Calm Calm - N/A   Clear
4:37 AM 35.6 °F 35.6 °F 100% 30.18 in 10.0 mi Calm Calm - N/A   Clear
4:57 AM 35.6 °F 35.6 °F 100% 30.19 in 10.0 mi Calm Calm - N/A   Clear
5:17 AM 35.6 °F 35.6 °F 100% 30.19 in 10.0 mi Calm Calm - N/A   Clear
5:37 AM 35.6 °F 35.6 °F 100% 30.20 in 10.0 mi Calm Calm - N/A   Clear
5:57 AM 35.6 °F 35.6 °F 100% 30.20 in 10.0 mi Calm Calm - N/A   Clear
6:17 AM 35.6 °F 35.6 °F 100% 30.21 in 10.0 mi Calm Calm - N/A   Clear
6:37 AM 35.6 °F 35.6 °F 100% 30.21 in 10.0 mi Calm Calm - N/A   Clear
6:57 AM 35.6 °F 35.6 °F 100% 30.21 in 10.0 mi Calm Calm - N/A   Clear
7:17 AM 35.6 °F 35.6 °F 100% 30.21 in 10.0 mi Calm Calm - N/A   Clear
7:37 AM 35.6 °F 35.6 °F 100% 30.21 in 10.0 mi Calm Calm - N/A   Clear
7:57 AM 35.6 °F 35.6 °F 100% 30.21 in 10.0 mi Calm Calm - N/A   Clear
8:17 AM 37.4 °F 37.4 °F 100% 30.21 in 10.0 mi Calm Calm - N/A   Clear
8:37 AM 42.8 °F 41.0 °F 93% 30.21 in 10.0 mi Calm Calm - N/A   Clear
8:57 AM 44.6 °F 42.8 °F 93% 30.21 in 10.0 mi Calm Calm - N/A   Clear
9:17 AM 48.2 °F 44.6 °F 87% 30.21 in 10.0 mi Calm Calm - N/A   Clear
9:37 AM 50.0 °F 44.6 °F 82% 30.21 in 10.0 mi Calm Calm - N/A   Clear
9:57 AM 53.6 °F 42.8 °F 67% 30.21 in 10.0 mi Calm Calm - N/A   Clear
10:17 AM 53.6 °F 42.8 °F 67% 30.21 in 10.0 mi East 3.5 mph - N/A   Clear
10:37 AM 55.4 °F 42.8 °F 63% 30.21 in 10.0 mi Calm Calm - N/A   Clear
10:57 AM 59.0 °F 41.0 °F 51% 30.21 in 10.0 mi Calm Calm - N/A   Clear
11:17 AM 60.8 °F 41.0 °F 48% 30.20 in 10.0 mi Calm Calm - N/A   Clear
11:37 AM 62.6 °F 39.2 °F 42% 30.20 in 10.0 mi ENE 3.5 mph - N/A   Clear
11:57 AM 64.4 °F 37.4 °F 37% 30.20 in 10.0 mi NNE 5.8 mph - N/A   Clear
12:17 PM 64.4 °F 37.4 °F 37% 30.19 in 10.0 mi East 4.6 mph - N/A   Clear
12:37 PM 66.2 °F 37.4 °F 35% 30.19 in 10.0 mi Calm Calm - N/A   Clear
12:58 PM 68.0 °F 37.4 °F 33% 30.18 in 10.0 mi Calm Calm - N/A   Clear
1:17 PM 69.8 °F 37.4 °F 31% 30.18 in 10.0 mi Calm Calm - N/A   Clear
1:37 PM 69.8 °F 37.4 °F 31% 30.17 in 10.0 mi Calm Calm - N/A   Clear
1:58 PM 69.8 °F 35.6 °F 28% 30.17 in 10.0 mi East 3.5 mph - N/A   Clear
2:17 PM 71.6 °F 35.6 °F 27% 30.16 in 10.0 mi Calm Calm - N/A   Clear
2:37 PM 71.6 °F 35.6 °F 27% 30.15 in 10.0 mi East 3.5 mph - N/A   Clear
2:58 PM 73.4 °F 37.4 °F 27% 30.14 in 10.0 mi Calm Calm - N/A   Clear
3:17 PM 71.6 °F 37.4 °F 29% 30.14 in 10.0 mi Calm Calm - N/A   Clear
3:37 PM 73.4 °F 37.4 °F 27% 30.13 in 10.0 mi ENE 3.5 mph - N/A   Clear
3:58 PM 73.4 °F 37.4 °F 27% 30.13 in 10.0 mi NNE 3.5 mph - N/A   Clear
4:17 PM 73.4 °F 39.2 °F 29% 30.13 in 10.0 mi Calm Calm - N/A   Clear
4:37 PM 73.4 °F 41.0 °F 31% 30.12 in 10.0 mi NNE 3.5 mph - N/A   Clear
4:58 PM 73.4 °F 41.0 °F 31% 30.12 in 10.0 mi Calm Calm - N/A   Clear
5:17 PM 73.4 °F 41.0 °F 31% 30.12 in 10.0 mi Calm Calm - N/A   Clear
5:37 PM 73.4 °F 41.0 °F 31% 30.11 in 10.0 mi Calm Calm - N/A   Clear
5:58 PM 71.6 °F 41.0 °F 33% 30.12 in 10.0 mi NE 3.5 mph - N/A   Clear
6:17 PM 71.6 °F 41.0 °F 33% 30.12 in 10.0 mi Calm Calm - N/A   Clear
6:37 PM 68.0 °F 42.8 °F 40% 30.11 in 5.0 mi Calm Calm - N/A   Haze
6:58 PM 60.8 °F 46.4 °F 59% 30.11 in 3.0 mi Calm Calm - N/A   Haze
7:17 PM 55.4 °F 44.6 °F 67% 30.10 in 10.0 mi Calm Calm - N/A   Clear
7:37 PM 53.6 °F 46.4 °F 77% 30.10 in 10.0 mi Calm Calm - N/A   Clear
7:57 PM 53.6 °F 46.4 °F 77% 30.10 in 10.0 mi Calm Calm - N/A   Clear
8:17 PM 51.8 °F 46.4 °F 82% 30.10 in 10.0 mi Calm Calm - N/A   Clear
8:37 PM 50.0 °F 46.4 °F 87% 30.10 in 10.0 mi Calm Calm - N/A   Clear
8:57 PM 50.0 °F 46.4 °F 87% 30.10 in 10.0 mi Calm Calm - N/A   Clear
9:17 PM 50.0 °F 46.4 °F 87% 30.10 in 10.0 mi Calm Calm - N/A   Clear
9:37 PM 50.0 °F 44.6 °F 82% 30.10 in 10.0 mi Calm Calm - N/A   Clear
9:57 PM 50.0 °F 42.8 °F 76% 30.11 in 10.0 mi NNW 3.5 mph - N/A   Clear
10:17 PM 50.0 °F 42.8 °F 76% 30.11 in 10.0 mi Calm Calm - N/A   Clear
10:37 PM 46.4 °F 44.6 °F 93% 30.11 in 10.0 mi Calm Calm - N/A   Clear
10:57 PM 46.4 °F 42.8 °F 87% 30.12 in 10.0 mi Calm Calm - N/A   Clear
11:17 PM 44.6 °F 42.8 °F 93% 30.11 in 10.0 mi Calm Calm - N/A   Clear
11:37 PM 48.2 °F 44.6 °F 87% 30.11 in 10.0 mi ENE 3.5 mph - N/A   Clear
11:57 PM 44.6 °F 42.8 °F 93% 30.11 in 10.0 mi Calm Calm - N/A   Clear